Tracking 30995 objects as of 7-Jul-2025
HD Live streaming from Space Station
objects crossing your sky now

THOR ABLESTAR DEB

Track THOR ABLESTAR DEB now!
10-day predictions


NORAD ID: 120
Int'l Code: 1961-015E
Perigee: 716.6 km
Apogee: 888.2 km
Inclination: 66.7 °
Period: 100.8 minutes
Semi major axis: 7173 km
RCS: 0.214 m2 (medium)
Launch date: June 29, 1961
Source: United States (US)
Launch site: AIR FORCE EASTERN TEST RANGE (AFETR)

Note: This is SATELLITE DEBRIS
Your satellite tracking list
Your tracking list is empty




NASA's NSSDC Master Catalog

Two Line Element Set (TLE):
1 00120U 61015E   25187.55619606  .00000404  00000-0  17983-3 0  9996
2 00120  66.7046 254.5368 0119560 256.2593 102.5173 14.28941843298935
Source of the keplerian elements: AFSPC